Weather History for Cozumel, Mexico

Change the Weather History Date:

Tuesday, December 31, 2013

  Actual Average Record
Temperature  
Mean Temperature 72 °F -  
Max Temperature 78 °F 80 °F 86 °F (2002)
Min Temperature 66 °F 69 °F 60 °F (2008)
Cooling Degree Days 7    
Growing Degree Days 22 (Base 50)    
Moisture  
Dew Point 70 °F    
Average Humidity 93    
Maximum Humidity 100    
Minimum Humidity 78    
Precipitation  
Precipitation 0.00 in - - ()
Sea Level Pressure  
Sea Level Pressure 30.06 in    
Wind  
Wind Speed 3 mph ()    
Max Wind Speed 13 mph    
Max Gust Speed -    
Visibility 7.4 miles    
Events      
Averages and records for this station are not official NWS values.
T = Trace of Precipitation, MM = Missing Value Source: Averaged Metar Reports

Daily Weather History Graph

Daily Weather History Graph

Search for Another Location

Airport:

Trip Planner

Search our weather history database for the weather conditions in past years. The results will help you decide how hot, cold, wet, or windy it might be!

Date:

Astronomy

Dec. 31, 2013 Rise Set
Actual Time 6:23 AM CST 5:18 PM CST
Civil Twilight 5:59 AM CST 5:42 PM CST
Nautical Twilight 5:31 AM CST 6:09 PM CST
Astronomical Twilight 5:04 AM CST 6:37 PM CST
Moon 5:21 AM CST (12/31) 4:47 PM CST (12/31)
Length of Visible Light 11h 42m
Length of Day
10h 54m
Waning Crescent, 1% of the Moon is Illuminated
Dec 31
Waning Crescent
Jan 1
New
Jan 7
First Quarter
Jan 15
Full
Jan 23
Last Quarter

Hourly Weather History & Observations

Time (CST) Temp. Dew Point Humidity Pressure Visibility Wind Dir Wind Speed Gust Speed Precip Events Conditions
12:47 AM 68.0 °F 68.0 °F 100% 30.05 in 7.0 mi Calm Calm - N/A   Partly Cloudy
2:05 AM 68.0 °F 68.0 °F 100% 30.04 in 7.0 mi Calm Calm - N/A   Partly Cloudy
3:01 AM 66.2 °F 66.2 °F 100% 30.06 in 7.0 mi Calm Calm - N/A   Partly Cloudy
4:13 AM 66.2 °F 66.2 °F 100% 30.05 in 7.0 mi Calm Calm - N/A   Partly Cloudy
4:50 AM 66.2 °F 66.2 °F 100% 30.05 in 7.0 mi Calm Calm - N/A   Scattered Clouds
5:46 AM 66.2 °F 66.2 °F 100% 30.05 in 7.0 mi Calm Calm - N/A   Partly Cloudy
6:46 AM 66.2 °F 66.2 °F 100% 30.05 in 7.0 mi Calm Calm - N/A   Partly Cloudy
7:41 AM 71.6 °F 71.6 °F 100% 30.09 in 8.0 mi Calm Calm - N/A   Scattered Clouds
8:45 AM 77.0 °F 73.4 °F 89% 30.14 in 8.0 mi East 5.8 mph - N/A   Scattered Clouds
9:42 AM 75.2 °F 71.6 °F 89% 30.11 in 8.0 mi ESE 12.7 mph - N/A   Mostly Cloudy
10:41 AM 78.8 °F 71.6 °F 78% 30.10 in 8.0 mi East 9.2 mph - N/A   Mostly Cloudy
11:46 AM 77.0 °F 69.8 °F 78% 30.06 in 8.0 mi ENE 5.8 mph - N/A   Mostly Cloudy
12:41 PM 77.0 °F 69.8 °F 78% 30.05 in 8.0 mi ENE 9.2 mph - N/A   Mostly Cloudy
1:46 PM 77.0 °F 71.6 °F 83% 30.02 in 8.0 mi East 10.4 mph - N/A   Mostly Cloudy
2:43 PM 77.0 °F 71.6 °F 83% 30.04 in 8.0 mi East 5.8 mph - N/A   Mostly Cloudy
3:50 PM 77.0 °F 71.6 °F 83% 30.02 in 8.0 mi East 9.2 mph - N/A   Mostly Cloudy
4:40 PM 75.2 °F 71.6 °F 89% 30.02 in 8.0 mi East 6.9 mph - N/A   Mostly Cloudy
5:46 PM 73.4 °F 71.6 °F 94% 30.02 in 7.0 mi East 4.6 mph - N/A   Mostly Cloudy
6:43 PM 71.6 °F 71.6 °F 100% 30.04 in 7.0 mi East 4.6 mph - N/A   Scattered Clouds
7:41 PM 71.6 °F 71.6 °F 100% 30.06 in 7.0 mi Calm Calm - N/A   Scattered Clouds
8:40 PM 69.8 °F 69.8 °F 100% 30.10 in 7.0 mi East 3.5 mph - N/A   Partly Cloudy
9:40 PM 69.8 °F 69.8 °F 100% 30.06 in 7.0 mi ESE 3.5 mph - N/A   Partly Cloudy
10:46 PM 69.8 °F 69.8 °F 100% 30.08 in 7.0 mi ESE 3.5 mph - N/A   Partly Cloudy
11:53 PM 68.0 °F 68.0 °F 100% 30.03 in 7.0 mi Calm Calm - N/A   Partly Cloudy